Amsterdam, Netherlands

10:50 PM CET on November 17, 2017 (GMT +0100)
Schiphol

Weather History for EHAM - May, 2013

Change the Weather History Date:

Saturday, May 18, 2013

  Actual Average Record
Temperature  
Mean Temperature 50 °F -  
Max Temperature 54 °F 64 °F 75 °F (1998)
Min Temperature 46 °F 49 °F 39 °F (2005)
Degree Days  
Heating Degree Days 15    
Moisture  
Dew Point 45 °F    
Average Humidity 82    
Maximum Humidity 93    
Minimum Humidity 67    
Precipitation  
Precipitation 0.00 in - - ()
Sea Level Pressure  
Sea Level Pressure 29.75 in    
Wind  
Wind Speed 8 mph ()    
Max Wind Speed 14 mph    
Max Gust Speed -    
Visibility 7.2 miles    
Events      
Averages and records for this station are not official NWS values.
T = Trace of Precipitation, MM = Missing Value Source: Averaged Metar Reports

Daily Weather History Graph

Daily Weather History Graph

Search for Another Location

Airport or City:

Trip Planner

Search our weather history database for the weather conditions in past years. The results will help you decide how hot, cold, wet, or windy it might be!

Date:

Astronomy

May. 18, 2013 Rise Set
Actual Time 5:41 AM CEST 9:34 PM CEST
Civil Twilight 4:57 AM CEST 10:18 PM CEST
Nautical Twilight 3:56 AM CEST 11:19 PM CEST
Astronomical Twilight 1:59 AM CEST 1:04 AM CEST
Moon 1:28 PM CEST (5/18) 2:22 AM CEST (5/18)
Length of Visible Light 17h 20m
Length of Day
15h 53m
First Quarter, 52% of the Moon is Illuminated
May 18
First Quarter
May 25
Full
May 31
Last Quarter
Jun 8
New
Jun 16
First Quarter

Hourly Weather History & Observations

Time (CEST) Temp. Windchill Dew Point Humidity Pressure Visibility Wind Dir Wind Speed Gust Speed Precip Events Conditions
12:25 AM 48.2 °F - 44.6 °F 87% 29.68 in 6.2 mi West 6.9 mph - N/A   Mostly Cloudy
12:55 AM 48.2 °F - 44.6 °F 87% 29.68 in 6.2 mi West 8.1 mph - N/A   Overcast
1:25 AM 48.2 °F - 44.6 °F 87% 29.68 in 6.2 mi West 8.1 mph - N/A   Overcast
1:55 AM 48.2 °F - 44.6 °F 87% 29.68 in 6.2 mi West 9.2 mph - N/A   Overcast
2:00 AM 47 °F - 45 °F 89% 29.69 in 16 mi West 8.9 mph - -   Partly Cloudy
2:25 AM 46.4 °F 41.5 °F 44.6 °F 93% 29.68 in 6.2 mi West 10.4 mph - N/A   Overcast
2:55 AM 46.4 °F 41.9 °F 44.6 °F 93% 29.68 in 6.2 mi West 9.2 mph - N/A   Mostly Cloudy
3:25 AM 46.4 °F 41.5 °F 44.6 °F 93% 29.68 in 6.2 mi West 10.4 mph - N/A   Overcast
3:55 AM 46.4 °F 42.4 °F 44.6 °F 93% 29.68 in 6.2 mi West 8.1 mph - N/A   Overcast
4:25 AM 46.4 °F 41.9 °F 44.6 °F 93% 29.68 in 6.2 mi West 9.2 mph - N/A   Overcast
4:55 AM 46.4 °F 41.1 °F 44.6 °F 93% 29.68 in 6.2 mi West 11.5 mph - N/A   Overcast
5:00 AM 47 °F - 44 °F 86% 29.69 in 14 mi West 11.2 mph - -   Overcast
5:25 AM 46.4 °F 41.5 °F 44.6 °F 93% 29.68 in 6.2 mi WSW 10.4 mph - N/A   Overcast
5:55 AM 46.4 °F 40.7 °F 44.6 °F 93% 29.68 in 6.2 mi West 12.7 mph - N/A   Overcast
6:25 AM 46.4 °F 40.7 °F 44.6 °F 93% 29.68 in 6.2 mi West 12.7 mph - N/A   Overcast
6:55 AM 48.2 °F - 42.8 °F 82% 29.68 in 6.2 mi West 12.7 mph - N/A   Overcast
7:25 AM 48.2 °F - 44.6 °F 87% 29.71 in 6.2 mi West 11.5 mph - N/A   Overcast
7:55 AM 48.2 °F - 44.6 °F 87% 29.71 in 6.2 mi WSW 12.7 mph - N/A   Mostly Cloudy
8:00 AM 49 °F - 45 °F 80% 29.72 in 18 mi WSW 11.2 mph - -   Partly Cloudy
8:25 AM 48.2 °F - 44.6 °F 87% 29.71 in 6.2 mi West 12.7 mph - N/A   Mostly Cloudy
8:55 AM 48.2 °F - 44.6 °F 87% 29.71 in 6.2 mi WSW 12.7 mph - N/A   Mostly Cloudy
9:25 AM 50.0 °F - 44.6 °F 82% 29.71 in 6.2 mi WSW 12.7 mph - N/A   Mostly Cloudy
9:55 AM 48.2 °F - 46.4 °F 93% 29.74 in 6.2 mi West 12.7 mph - N/A   Light Drizzle
10:25 AM 50.0 °F - 44.6 °F 82% 29.74 in 6.2 mi WSW 11.5 mph - N/A   Mostly Cloudy
10:55 AM 50.0 °F - 44.6 °F 82% 29.74 in 6.2 mi WSW 11.5 mph - N/A   Light Drizzle
11:00 AM 50 °F - 45 °F 77% 29.75 in 19 mi WSW 11.2 mph - -   Overcast
11:25 AM 50.0 °F - 44.6 °F 82% 29.74 in 6.2 mi WSW 10.4 mph - N/A   Mostly Cloudy
11:55 AM 51.8 °F - 44.6 °F 76% 29.74 in 6.2 mi WSW 12.7 mph - N/A   Mostly Cloudy
12:25 PM 53.6 °F - 44.6 °F 72% 29.74 in 6.2 mi WSW 13.8 mph - N/A   Mostly Cloudy
12:55 PM 51.8 °F - 44.6 °F 76% 29.77 in 6.2 mi SW 12.7 mph - N/A   Mostly Cloudy
1:25 PM 51.8 °F - 44.6 °F 76% 29.77 in 6.2 mi SW 12.7 mph - N/A   Mostly Cloudy
1:55 PM 51.8 °F - 46.4 °F 82% 29.77 in 6.2 mi SW 10.4 mph - N/A   Mostly Cloudy
2:00 PM 52 °F - 46 °F 71% 29.78 in 11 mi SW 11.2 mph - -   Partly Cloudy
2:25 PM 51.8 °F - 44.6 °F 76% 29.77 in 6.2 mi WSW 11.5 mph - N/A   Mostly Cloudy
2:55 PM 53.6 °F - 44.6 °F 72% 29.77 in 6.2 mi WSW 11.5 mph - N/A   Mostly Cloudy
3:25 PM 53.6 °F - 44.6 °F 72% 29.77 in 6.2 mi WSW 9.2 mph - N/A   Mostly Cloudy
3:55 PM 51.8 °F - 44.6 °F 76% 29.77 in 6.2 mi SW 9.2 mph - N/A   Mostly Cloudy
4:25 PM 53.6 °F - 46.4 °F 77% 29.77 in 6.2 mi SW 5.8 mph - N/A   Mostly Cloudy
4:55 PM 53.6 °F - 44.6 °F 72% 29.77 in 6.2 mi WSW 5.8 mph - N/A   Mostly Cloudy
5:00 PM 53 °F - 45 °F 67% 29.79 in 11 mi West 6.7 mph - -   Overcast
5:25 PM 53.6 °F - 44.6 °F 72% 29.77 in 6.2 mi West 4.6 mph - N/A   Mostly Cloudy
5:55 PM 53.6 °F - 46.4 °F 77% 29.77 in 6.2 mi South 4.6 mph - N/A   Mostly Cloudy
6:25 PM 53.6 °F - 44.6 °F 72% 29.77 in 6.2 mi South 5.8 mph - N/A   Mostly Cloudy
6:55 PM 53.6 °F - 46.4 °F 77% 29.80 in 6.2 mi South 6.9 mph - N/A   Mostly Cloudy
7:25 PM 53.6 °F - 46.4 °F 77% 29.77 in 6.2 mi South 4.6 mph - N/A   Mostly Cloudy
7:55 PM 53.6 °F - 46.4 °F 77% 29.80 in 6.2 mi WNW 3.5 mph - N/A   Mostly Cloudy
8:00 PM 53 °F - 46 °F 70% 29.82 in 10 mi WNW 4.5 mph - -   Partly Cloudy
8:25 PM 51.8 °F - 46.4 °F 82% 29.80 in 6.2 mi NNW 2.3 mph - N/A   Mostly Cloudy
8:55 PM 51.8 °F - 46.4 °F 82% 29.80 in 6.2 mi NNW 3.5 mph - N/A   Mostly Cloudy
9:25 PM 51.8 °F - 46.4 °F 82% 29.80 in 6.2 mi NNE 3.5 mph - N/A   Mostly Cloudy
9:55 PM 51.8 °F - 46.4 °F 82% 29.83 in 6.2 mi Variable 1.2 mph - N/A   Mostly Cloudy
10:25 PM 51.8 °F - 46.4 °F 82% 29.83 in 6.2 mi Variable 2.3 mph - N/A   Mostly Cloudy
10:55 PM 51.8 °F - 46.4 °F 82% 29.83 in 6.2 mi Variable 2.3 mph - N/A   Overcast
11:00 PM 52 °F - 46 °F 74% 29.85 in 8 mi Calm Calm - -   Overcast
11:25 PM 50.0 °F - 46.4 °F 87% 29.83 in 6.2 mi Variable 1.2 mph - N/A   Overcast
11:55 PM 50.0 °F - 44.6 °F 82% 29.83 in 6.2 mi ENE 3.5 mph - N/A   Mostly Cloudy